sat.trackr.live / text

‹ back to catalog

ONEWEB-0385

NORAD 49311 · 2021-090AJ

PAYLOAD ACTIVE UNKNOWN

§ Identity

Operator
Country
UK
Launch date
2021-10-14
Launch site
VOSTO
Launch vehicle
Mass (kg)
RCS (m²)

Purposes: comms

External: N2YO · Heavens-Above · Gunter

§ Orbital elements

Epoch: 2026-09-20T05:07:27.460128Z

Period
109.03 min
Inclination
87.9146°
Eccentricity
0.0002139
Mean motion
13.20770601 rev/d
Perigee alt
1,180.2 km
Apogee alt
1,183.4 km
Semi-major
7,559.9 km
B*
9.2343e-5
RAAN
255.4823°
Arg perigee
90.8543°
Mean anomaly
269.2835°
Rev number
24,234

§ Raw data

ONEWEB-03851 49311U 21090AJ  26263.21351227  .00000051  00000+0  92343-4 0  99922 49311  87.9146 255.4823 0002139  90.8543 269.2835 13.20770601242345

JSON: /api/v1/satellites/49311 · /tle

For live sub-satellite position, see the globe view (requires WebGL).

§ Visibility from observer

Set your observer location to see the next 7 days of passes ≥ 10°. The values pass through the URL so the page stays shareable.

No JS? Fill the form by hand. The geolocation button needs JavaScript.